This is the latest recevied weather packets stored in our database for station/object IA5ITY-13. If no packets are shown the sender has not sent any weather packets the latest 10 day(s).
| Time | Temp. | Humidity | Pressure | Rain* | Wind** | Luminosity | Snow |
|---|---|---|---|---|---|---|---|
| 1777689912 | 15° C | 22% | 1023.2 hPa | 0 mm | - | - | - |
| 1777689612 | 15° C | 22% | 1023.3 hPa | 0 mm | - | - | - |
| 1777689308 | 15° C | 22% | 1023.2 hPa | 0 mm | - | - | - |
| 1777689024 | 15° C | 21% | 1023.2 hPa | 0 mm | - | - | - |
| 1777688709 | 15° C | 21% | 1023.2 hPa | 0 mm | - | - | - |
| 1777688112 | 13.89° C | 23% | 1023.2 hPa | 0 mm | - | - | - |
| 1777687509 | 13.89° C | 23% | 1023.3 hPa | 0 mm | - | - | - |
| 1777673712 | 17.22° C | 11% | 1022.8 hPa | 0 mm | - | - | - |
| 1777673412 | 17.22° C | 10% | 1022.7 hPa | 0 mm | - | - | - |
| 1777673108 | 17.22° C | 10% | 1022.6 hPa | 0 mm | - | - | - |
| 1777671612 | 17.22° C | 13% | 1022.5 hPa | 0 mm | - | - | - |
| 1777671309 | 17.22° C | 13% | 1022.8 hPa | 0 mm | - | - | - |
| 1777671022 | 17.22° C | 18% | 1022.9 hPa | 0 mm | - | - | - |
| 1777670709 | 17.22° C | 18% | 1022.9 hPa | 0 mm | - | - | - |
| 1777670412 | 16.11° C | 23% | 1022.9 hPa | 0 mm | - | - | - |
| 1777670112 | 16.11° C | 24% | 1022.9 hPa | 0 mm | - | - | - |
| 1777668612 | 17.22° C | 23% | 1022.8 hPa | 0 mm | - | - | - |
| 1777667423 | 17.22° C | 28% | 1022.7 hPa | 0 mm | - | - | - |
| 1777665632 | 17.22° C | 32% | 1022.4 hPa | 0 mm | - | - | - |
| 1777664712 | 17.22° C | 30% | 1022.2 hPa | 0 mm | - | - | - |
| 1777664109 | 17.22° C | 29% | 1022.1 hPa | 0 mm | - | - | - |
| 1777663821 | 17.78° C | 28% | 1022.1 hPa | 0 mm | - | - | - |
| 1777663212 | 17.78° C | 27% | 1022.1 hPa | 0 mm | - | - | - |
| 1777662912 | 17.78° C | 26% | 1022 hPa | 0 mm | - | - | - |
| 1777662308 | 17.78° C | 31% | 1021.9 hPa | 0 mm | - | - | - |
* Rain latest hour (hover to see other rain measurements)
** Current wind speed in m/s (hover to see current wind gust speed)